Orbital Elements at Epoch 2459200.5 (2020-Dec-17.0) TDB
Reference: JPL 12 (heliocentric ecliptic J2000)
Element | Value | Uncertainty (1-sigma) | Units |
e | .1190440881672166 | 5.4806e-08 | |
a | 2.633807873325103 | 2.3865e-08 | au |
q | 2.32026861663748 | 1.5301e-07 | au |
i | 1.585034820351395 | 6.911e-06 | deg |
node | 302.1073059075954 | 0.00027616 | deg |
peri | 130.6048320935244 | 0.00027955 | deg |
M | 213.4310215916727 | 4.4438e-05 | deg |
tp | 2459836.144252264286 (2022-Sep-13.64425226) | 0.00019819 | TDB |
period | 1561.257595571411 4.27 | 2.122e-05 5.81e-08 | d yr |
n | .2305833457727661 | 3.134e-09 | deg/d |
Q | 2.947347130012726 | 2.6706e-08 | au |
|
| | Orbit Determination Parameters
Additional Information
|